| time (UTC) | temp F | wind direction | speed MPH | gust MPH | rain 1hr in | rain 24hr in | rain mn in | humidity % | barometer mb |
| 20260906221534 | 73 | 67 | 1.0 | 5.0 | 0.00 | 0.04 | 0.03 | 59 | 1016.6 |
| 20260906220033 | 73 | 0 | 1.0 | 4.0 | 0.00 | 0.04 | 0.03 | 61 | 1016.5 |
| 20260906214537 | 73 | 76 | 2.0 | 8.0 | 0.00 | 0.04 | 0.03 | 60 | 1016.4 |
| 20260906213037 | 74 | 166 | 2.0 | 7.0 | 0.00 | 0.04 | 0.03 | 60 | 1016.3 |
| 20260906211537 | 75 | 139 | 4.0 | 8.0 | 0.00 | 0.04 | 0.03 | 58 | 1016.4 |
| 20260906210038 | 75 | 91 | 2.0 | 8.0 | 0.01 | 0.04 | 0.03 | 56 | 1016.4 |
| 20260906204534 | 74 | 0 | 2.0 | 8.0 | 0.01 | 0.05 | 0.03 | 60 | 1016.4 |
| 20260906203035 | 74 | 352 | 4.0 | 11.0 | 0.01 | 0.05 | 0.03 | 60 | 1016.3 |
| 20260906201537 | 74 | 5 | 1.0 | 6.0 | 0.01 | 0.05 | 0.03 | 59 | 1016.3 |
| 20260906200034 | 74 | 0 | 1.0 | 4.0 | 0.00 | 0.04 | 0.02 | 56 | 1016.4 |
| 20260906194534 | 73 | 99 | 2.0 | 6.0 | 0.00 | 0.04 | 0.02 | 64 | 1016.6 |
| 20260906193034 | 75 | 344 | 1.0 | 5.0 | 0.00 | 0.04 | 0.02 | 60 | 1016.5 |
| 20260906191535 | 73 | 177 | 0.0 | 4.0 | 0.00 | 0.04 | 0.02 | 64 | 1016.4 |
| 20260906190035 | 71 | 106 | 1.0 | 5.0 | 0.00 | 0.04 | 0.02 | 65 | 1016.6 |
| 20260906184534 | 74 | 343 | 2.0 | 5.0 | 0.00 | 0.04 | 0.02 | 64 | 1016.7 |
| 20260906183040 | 73 | 142 | 1.0 | 5.0 | 0.00 | 0.04 | 0.02 | 66 | 1016.8 |
| 20260906181535 | 73 | 90 | 2.0 | 7.0 | 0.00 | 0.04 | 0.02 | 60 | 1017.1 |
| 20260906180043 | 72 | 88 | 2.0 | 7.0 | 0.00 | 0.04 | 0.02 | 64 | 1017.2 |
| 20260906174537 | 72 | 87 | 2.0 | 6.0 | 0.00 | 0.04 | 0.02 | 65 | 1017.2 |
| 20260906173038 | 72 | 71 | 1.0 | 9.0 | 0.00 | 0.04 | 0.02 | 67 | 1017.3 |
| 20260906171534 | 71 | 164 | 2.0 | 9.0 | 0.00 | 0.04 | 0.02 | 67 | 1017.4 |
| 20260906170034 | 71 | 121 | 2.0 | 10.0 | 0.00 | 0.04 | 0.02 | 68 | 1017.6 |
| 20260906164535 | 70 | 350 | 4.0 | 10.0 | 0.00 | 0.04 | 0.02 | 68 | 1017.7 |
| 20260906163039 | 70 | 50 | 1.0 | 8.0 | 0.00 | 0.04 | 0.02 | 76 | 1017.8 |
| 20260906161535 | 69 | 0 | 2.0 | 9.0 | 0.00 | 0.04 | 0.02 | 74 | 1017.9 |
| 20260906160034 | 66 | 78 | 4.0 | 9.0 | 0.00 | 0.04 | 0.02 | 75 | 1018.1 |
| 20260906154533 | 67 | 86 | 1.0 | 6.0 | 0.00 | 0.05 | 0.02 | 78 | 1018.2 |
| 20260906153038 | 67 | 93 | 4.0 | 8.0 | 0.00 | 0.05 | 0.02 | 76 | 1018.0 |
| 20260906151534 | 66 | 46 | 3.0 | 10.0 | 0.00 | 0.05 | 0.02 | 75 | 1018.1 |
| 20260906150035 | 66 | 89 | 2.0 | 8.0 | 0.00 | 0.05 | 0.02 | 81 | 1017.9 |
| 20260906144537 | 65 | 88 | 1.0 | 8.0 | 0.00 | 0.05 | 0.02 | 82 | 1017.9 |
| 20260906143045 | 63 | 0 | 2.0 | 6.0 | 0.00 | 0.05 | 0.02 | 84 | 1017.8 |
| 20260906141533 | 63 | 76 | 0.0 | 6.0 | 0.01 | 0.05 | 0.02 | 86 | 1017.6 |
| 20260906140035 | 62 | 0 | 0.0 | 5.0 | 0.01 | 0.05 | 0.02 | 88 | 1017.6 |
| 20260906134536 | 62 | 0 | 0.0 | 4.0 | 0.01 | 0.05 | 0.02 | 88 | 1017.3 |
| 20260906133033 | 62 | 0 | 0.0 | 3.0 | 0.01 | 0.05 | 0.02 | 89 | 1017.3 |
| 20260906131536 | 62 | 0 | 0.0 | 4.0 | 0.00 | 0.04 | 0.01 | 90 | 1017.2 |
| 20260906130037 | 62 | 95 | 0.0 | 4.0 | 0.00 | 0.04 | 0.01 | 89 | 1017.3 |
| 20260906124535 | 61 | 156 | 1.0 | 4.0 | 0.00 | 0.04 | 0.01 | 92 | 1017.1 |
| 20260906123035 | 59 | 144 | 1.0 | 2.0 | 0.00 | 0.04 | 0.01 | 96 | 1016.9 |
| 20260906121533 | 57 | 0 | 0.0 | 0.0 | 0.00 | 0.04 | 0.01 | 97 | 1016.7 |
| 20260906120034 | 54 | 0 | 0.0 | 1.0 | 0.00 | 0.04 | 0.01 | 97 | 1016.6 |
| 20260906114538 | 54 | 0 | 0.0 | 1.0 | 0.00 | 0.04 | 0.01 | 97 | 1016.4 |
| 20260906113035 | 52 | 0 | 0.0 | 0.0 | 0.00 | 0.04 | 0.01 | 97 | 1016.2 |
| 20260906111533 | 52 | 0 | 0.0 | 2.0 | 0.00 | 0.04 | 0.01 | 97 | 1016.1 |
| 20260906110032 | 52 | 0 | 0.0 | 1.0 | 0.00 | 0.04 | 0.01 | 97 | 1016.0 |
| 20260906104533 | 52 | 144 | 0.0 | 1.0 | 0.00 | 0.05 | 0.01 | 96 | 1015.9 |
| 20260906103032 | 52 | 0 | 0.0 | 0.0 | 0.00 | 0.05 | 0.01 | 97 | 1015.8 |
| 20260906101533 | 52 | 0 | 0.0 | 1.0 | 0.00 | 0.05 | 0.01 | 97 | 1015.7 |
| 20260906100039 | 52 | 0 | 0.0 | 2.0 | 0.00 | 0.05 | 0.01 | 97 | 1015.7 |
| 20260906094534 | 52 | 0 | 0.0 | 0.0 | 0.00 | 0.05 | 0.01 | 96 | 1015.6 |
| 20260906093043 | 53 | 0 | 0.0 | 0.0 | 0.00 | 0.05 | 0.01 | 97 | 1015.6 |
| 20260906091532 | 53 | 0 | 0.0 | 0.0 | 0.00 | 0.05 | 0.01 | 97 | 1015.5 |
| 20260906090036 | 53 | 0 | 0.0 | 1.0 | 0.00 | 0.05 | 0.01 | 96 | 1015.4 |
| 20260906084538 | 53 | 0 | 0.0 | 2.0 | 0.00 | 0.05 | 0.01 | 96 | 1015.3 |
| 20260906083032 | 53 | 0 | 0.0 | 1.0 | 0.00 | 0.05 | 0.01 | 96 | 1015.0 |
| 20260906081534 | 54 | 0 | 0.0 | 0.0 | 0.00 | 0.05 | 0.01 | 96 | 1014.8 |
| 20260906080047 | 54 | 0 | 0.0 | 1.0 | 0.01 | 0.05 | 0.01 | 96 | 1014.7 |
| 20260906074534 | 55 | 0 | 0.0 | 1.0 | 0.01 | 0.05 | 0.01 | 96 | 1014.9 |
| 20260906073034 | 55 | 0 | 0.0 | 1.0 | 0.01 | 0.05 | 0.01 | 96 | 1014.5 |
| 20260906071532 | 54 | 0 | 0.0 | 1.0 | 0.01 | 0.05 | 0.01 | 96 | 1014.6 |
| 20260906070033 | 55 | 0 | 0.0 | 1.0 | 0.00 | 0.04 | 0.00 | 96 | 1014.6 |
| 20260906064536 | 55 | 0 | 0.0 | 1.0 | 0.00 | 0.04 | 0.00 | 96 | 1014.6 |
| 20260906063035 | 55 | 0 | 0.0 | 2.0 | 0.00 | 0.04 | 0.00 | 96 | 1014.6 |
| 20260906061538 | 55 | 0 | 0.0 | 0.0 | 0.00 | 0.04 | 0.00 | 96 | 1014.6 |
| 20260906060037 | 56 | 0 | 0.0 | 2.0 | 0.00 | 0.04 | 0.00 | 96 | 1014.5 |
| 20260906054533 | 56 | 144 | 0.0 | 2.0 | 0.00 | 0.05 | 0.00 | 96 | 1014.5 |
| 20260906053035 | 56 | 0 | 0.0 | 3.0 | 0.00 | 0.05 | 0.00 | 96 | 1014.7 |
| 20260906051534 | 56 | 144 | 0.0 | 2.0 | 0.00 | 0.05 | 0.00 | 95 | 1014.7 |
| 20260906050035 | 57 | 0 | 0.0 | 0.0 | 0.00 | 0.05 | 0.00 | 95 | 1014.8 |
| 20260906044535 | 57 | 0 | 0.0 | 0.0 | 0.00 | 0.05 | 0.00 | 95 | 1014.6 |
| 20260906043033 | 57 | 0 | 0.0 | 0.0 | 0.00 | 0.05 | 0.00 | 95 | 1014.6 |
| 20260906041541 | 57 | 0 | 0.0 | 0.0 | 0.00 | 0.05 | 0.00 | 95 | 1014.6 |
| 20260906040041 | 58 | 0 | 0.0 | 0.0 | 0.00 | 0.05 | 0.00 | 94 | 1014.7 |
| 20260906034535 | 58 | 0 | 0.0 | 0.0 | 0.00 | 0.05 | 0.05 | 94 | 1014.6 |
| 20260906033037 | 59 | 0 | 0.0 | 2.0 | 0.00 | 0.05 | 0.05 | 94 | 1014.7 |
| 20260906031534 | 58 | 0 | 0.0 | 0.0 | 0.00 | 0.05 | 0.05 | 93 | 1014.6 |
| 20260906030034 | 59 | 0 | 0.0 | 0.0 | 0.00 | 0.05 | 0.05 | 94 | 1014.5 |
| 20260906024536 | 59 | 0 | 0.0 | 0.0 | 0.00 | 0.06 | 0.05 | 92 | 1014.3 |
| 20260906023042 | 59 | 0 | 0.0 | 0.0 | 0.01 | 0.06 | 0.05 | 93 | 1014.2 |
| 20260906021535 | 60 | 0 | 0.0 | 0.0 | 0.01 | 0.06 | 0.05 | 92 | 1014.0 |
| 20260906020036 | 60 | 0 | 0.0 | 0.0 | 0.01 | 0.06 | 0.05 | 92 | 1014.0 |
| 20260906014538 | 61 | 0 | 0.0 | 0.0 | 0.01 | 0.06 | 0.05 | 91 | 1013.7 |
| 20260906013034 | 61 | 0 | 0.0 | 0.0 | 0.00 | 0.05 | 0.04 | 91 | 1013.7 |
| 20260906011532 | 61 | 0 | 0.0 | 0.0 | 0.00 | 0.05 | 0.04 | 91 | 1013.6 |
| 20260906010035 | 62 | 0 | 0.0 | 2.0 | 0.00 | 0.05 | 0.04 | 89 | 1013.5 |
| 20260906004533 | 63 | 0 | 0.0 | 2.0 | 0.00 | 0.05 | 0.04 | 86 | 1013.4 |
| 20260906003035 | 63 | 0 | 0.0 | 2.0 | 0.00 | 0.05 | 0.04 | 86 | 1013.1 |
| 20260906001535 | 64 | 144 | 0.0 | 2.0 | 0.00 | 0.05 | 0.04 | 86 | 1013.0 |
| 20260906000039 | 65 | 144 | 0.0 | 2.0 | 0.00 | 0.05 | 0.04 | 82 | 1012.8 |
| 20260905234535 | 67 | 144 | 1.0 | 2.0 | 0.00 | 0.05 | 0.04 | 79 | 1012.7 |
| 20260905233037 | 70 | 0 | 0.0 | 2.0 | 0.00 | 0.05 | 0.04 | 70 | 1012.7 |
| 20260905231544 | 72 | 0 | 0.0 | 4.0 | 0.00 | 0.05 | 0.04 | 67 | 1012.7 |
| 20260905230034 | 73 | 95 | 1.0 | 7.0 | 0.00 | 0.05 | 0.04 | 65 | 1012.7 |
| 20260905224534 | 74 | 86 | 2.0 | 4.0 | 0.00 | 0.06 | 0.04 | 62 | 1012.5 |
| 20260905223034 | 74 | 59 | 0.0 | 6.0 | 0.00 | 0.06 | 0.04 | 60 | 1012.3 |